STARLINK-30343, 57753

Orbit data source: Space-Track

STARLINK-30343, 57753 is a payload satellite owned by SpaceX/Seattle (US) in LEO that was launched on Fri, 01 Sep 2023 UTC via an FALCON 9 launch vehicle from the Air Force Eastern Test Range (AFETR). Payload-class satellites include a variety of spacecraft equipped with specific instruments for various scientific and technological missions. These include communications satellites like Starlink; space stations such as the ISS; scientific satellites like the Hubble; Earth observation satellites from companies like Planet Labs, Umbra, and HawkEye 360; GPS; miniature CubeSats for education and research; and military/defense satellites.

Loading next visibility...
Identifier
57753, 2023-131X
Orbit
LEO
Country
Flag of USUS
Related business
Manufacturer
SpaceX/Seattle
Mission
Operational Commercial Communications
Bus & Motor
STARLINK V2M, Unknown motor
Mass
730 kg wet, ~700 kg dry
Launch date (UTC)
2023-09-01 (3 years ago)
Launch vehicle
FALCON 9
Launch site
Air Force Eastern Test Range (AFETR)
Object type
Payload
Rocket body
Debris
Shape & HBR
Box + 2 Pan, 17.7 m
Radar Cross Section
33.884 m², Large (>1 m²)

Expand to show TLE details & history
Last TLE update: 2 days ago

TLE from 2 days ago
0 STARLINK-30343
1 57753U 23131X   26171.43620932 -.00000429  00000-0 -60616-5 0  9994
2 57753  42.9994 319.5612 0000876 285.4997  74.5758 15.27579911155541
Epoch: 2026-06-20T10:28Z
TLE epoch observation values (Epoch: 2026-06-20T10:28:08.485Z)
Latitude
Longitude
-106.12501°
Altitude
482.665 km
Speed
7.626 km/s
True Right ascension
21h 18m 14s
True Declination
0° 00' 00"
Sunlit
Object was in full shadow at epoch
Visualization orbit readout
Latitude
Unknown
Longitude
Unknown
Altitude
Unknown
Speed
Unknown
Apparent Right ascension
Unknown
Apparent Declination
Unknown
Sunlit
N/A
Visualization observer readout
Local Sidereal Time
21:29:42
Azimuth
Unknown
Elevation
Unknown
Doppler factor
Unknown
Orbital elements
Apogee altitude
485.596 km
Perigee altitude
484.393 km
Semi-major axis
6,863.132 km
Eccentricity
0.00009
Inclination
42.9994°
RAAN
319.5612°
Arg. of periapsis
285.4997°
True anomaly
74.58548°
Mean anomaly
74.5758°
Eccentric anomaly
74.58064°
Mean motion
3.81733 °/min
Orbital period
94.31 mins
BSTAR
-0.0000060616
Loading maneuver chart data...
Computing Atmospheric mass density...
Loading historical data...
Loading historical data...
Loading historical data...
Loading historical data...
Loading historical data...
Loading historical data...
Loading historical data...

Documentation

Showing up to 5 results
|